Regional Weather Roundup
Issued by NWS

Home | Current Version | Previous Version | Graphics & Text | Print | Product List | Glossary On
Versions: 1 2 3 4 5 6 7 8 9 10 11 12 13 14 15 16 17 18 19 20 21 22 23 24 25 26 27 28 29 30 31 32 33 34 35 36 37 38 39 40 41 42 43 44 45 46 47 48 49 50
000
ASUS43 KDMX 191507
RWRIA

WEATHER ROUNDUP FOR IOWA
NATIONAL WEATHER SERVICE DES MOINES IA
900 AM CST FRI DEC 19 2014

NOTE: "FAIR" INDICATES FEW OR NO CLOUDS BELOW 12,000 FEET WITH NO
SIGNIFICANT WEATHER AND/OR OBSTRUCTIONS TO VISIBILITY.

* - THESE STATIONS ARE NOT NWS STATIONS...THUS NOT UNDER NWS
QUALITY CONTROL.  THEY ALSO DO NOT REPORT WEATHER SUCH
AS PRECIPITATION OR FOG.

IAZ001>003-012>014-020>022-031>034-043>046-191600-
   NORTHWEST IOWA

CITY           SKY/WX    TMP DP  RH WIND       PRES   REMARKS
CARROLL *      CLOUDY    30  30 100 S7        30.22F FOG     WCI  23
CHEROKEE *     CLOUDY    30  30 100 S6        30.20S FOG     WCI  24
DENISON *      CLOUDY    30  30 100 S6        30.20S FOG     WCI  24
LE MARS *      CLOUDY    30  30 100 S9        30.20R FOG     WCI  22
ORANGE CITY *  CLOUDY    30  28  93 S9        30.17S FOG     WCI  22
SHELDON *      CLOUDY    28  30 100 S9        30.17S FOG     WCI  20
SIOUX CITY     CLOUDY    32  28  85 SE9       30.20S FOG     WCI  24
SPENCER        CLOUDY    30  27  88 S9        30.19S FOG     WCI  22
STORM LAKE *   CLOUDY    30  28  93 S10       30.20S FOG     WCI  21
$$

IAZ055>058-069>071-079>083-090>094-191600-
   SOUTHWEST IOWA

CITY           SKY/WX    TMP DP  RH WIND       PRES   REMARKS
ATLANTIC *     CLOUDY    30  30 100 S6        30.23S FOG     WCI  24
AUDUBON *      PTSUNNY   30  25  80 S3        30.23S HAZE
CLARINDA *     CLOUDY    30  30 100 S5        30.28R FOG     WCI  25
COUNCIL BLFS * CLOUDY    30  30 100 S6        30.21S FOG     WCI  24
CRESTON *      CLOUDY    28  28 100 S6        30.26R FOG     WCI  22
HARLAN  *      CLOUDY    30  30 100 S6        30.26S FOG     WCI  24
LAMONI         CLOUDY    28  27  96 SE6       30.27R FOG     WCI  22
RED OAK *      CLOUDY    30  30 100 S7        30.25R FOG     WCI  23
SHENANDOAH *   CLOUDY    32  30  93 S8        30.26R FOG     WCI  25
$$

IAZ047>049-059>061-072>074-084-191600-
   CENTRAL IOWA

CITY           SKY/WX    TMP DP  RH WIND       PRES   REMARKS
AMES           CLOUDY    27  24  89 SE6       30.27R FOG     WCI  20
ANKENY *       CLOUDY    28  27  93 SE5       30.28R FOG     WCI  23
CHARITON *     CLOUDY    28  27  93 SE6       30.27R WCI  22
DES MOINES     CLOUDY    29  25  85 SE5       30.27R FOG     WCI  24
GRINNELL*      CLOUDY    27  23  86 SE6       30.28R WCI  20
KNOXVILLE *    CLOUDY    28  25  86 SE3       30.27R FOG
MARSHALLTOWN   CLOUDY    26  22  84 SE6       30.27S WCI  19
PELLA *        CLOUDY    28  27  93 SE6       30.30R FOG     WCI  22
PERRY *        CLOUDY    30  30 100 S6        30.25S FOG     WCI  24
$$

IAZ004>006-015-016-023>025-035-036-191600-
   NORTH CENTRAL IOWA

CITY           SKY/WX    TMP DP  RH WIND       PRES   REMARKS
ALGONA *       CLOUDY    28  28 100 S9        30.23R FOG     WCI  20
CLARION *      CLOUDY    27  27 100 S9        30.24S FOG     WCI  17
ESTHERVILLE    CLOUDY    27  26  96 S12       30.19S FOG     WCI  17
FORT DODGE *   CLOUDY    28  25  86 S6        30.24S WCI  22
MASON CITY     CLOUDY    25  22  88 SE9       30.25S WCI  15
FOREST CITY *  CLOUDY    28  25  86 SE8       30.23S FOG     WCI  20
IOWA FALLS *   LGT SNOW  27  23  86 SE8       30.26S WCI  18
$$

IAZ007>011-017>019-026>030-037>042-050>054-066-191600-
   NORTHEAST IOWA

CITY           SKY/WX    TMP DP  RH WIND       PRES   REMARKS
CEDAR RAPIDS   CLOUDY    24  21  88 S5        30.29S FOG     WCI  18
CHARLES CITY * CLOUDY    25  23  93 SE7       30.26F WCI  17
CLINTON *      CLOUDY    19  18  93 CALM      30.35R
DECORAH *      CLOUDY    25  19  80 S5        30.26S WCI  19
DUBUQUE        CLOUDY    24  19  81 E5        30.29R WCI  18
MONTICELLO *   CLOUDY    25  23  93 CALM      30.31R
OELWEIN *      CLOUDY    25  21  86 SE5       30.28S WCI  19
WATERLOO       CLOUDY    26  21  81 S5        30.28S WCI  20
$$

IAZ064-065-067-068-078-191600-
   EAST CENTRAL IOWA

CITY           SKY/WX    TMP DP  RH WIND       PRES   REMARKS
DAVENPORT      CLOUDY    24  19  81 SE3       30.32R
IOWA CITY      SUNNY     23  19  85 SE5       30.33R WCI  17
MT. PLEASANT * CLOUDY    27  23  86 E5        30.32R WCI  21
MUSCATINE *    SUNNY     25  19  80 SE5       30.35R WCI  19
QUAD CITIES    SUNNY     20  18  92 CALM      30.33R FOG
$$

IAZ062-063-075>077-085>089-095>099-191600-
   SOUTHEAST IOWA

CITY           SKY/WX    TMP DP  RH WIND       PRES   REMARKS
BURLINGTON     CLOUDY    28  22  78 E6        30.32R WCI  22
FAIRFIELD *    CLOUDY    27  23  86 SE6       30.31R WCI  20
FORT MADISON * CLOUDY    28  27  93 CALM      30.33R
KEOKUK *       CLOUDY    28  25  86 E6        30.31S WCI  22
OSKALOOSA *    CLOUDY    27  25  93 E6        30.30R WCI  20
CENTERVILLE *  CLOUDY    28  28 100 E3        30.29R
OTTUMWA        CLOUDY    27  23  85 E7        30.29R WCI  19
WASHINGTON *   CLOUDY    28  27  93 SE6       30.32R WCI  22
$$

ABBREVIATIONS USED IN REMARKS
   TC - TEMPERATURES IN CELSIUS
  WCI - WIND CHILL INDEX
   HX - HEAT INDEX
  VSB - VISIBILITY
$$




USA.gov is the U.S. government's official web portal to all federal, state and local government web resources and services.